Location: Burzi?i
(45.0869°N, 16.0577°E)
Time: 11:58:13
(UTC+00:00)

IRS-1C Rocket - Pass Details

Date: 29 October 2020
Orbit: 801 x 805 km, 99.0° (Epoch: 28 November)

Event Time Altitude Azimuth Distance (km) Brightness Sun altitude
Rises 16:47:48 0° 156° (SSE) 3,302 7.1 -11.2°
Reaches altitude 10° 16:50:08 10° 154° (SSE) 2,376 6.4 -11.6°
Maximum altitude 16:55:21 69° 72° (ENE) 863 4.0 -12.5°
Drops below altitude 10° 17:00:36 10° 350° (N) 2,395 6.6 -13.4°
Sets 17:02:57 0° 348° (NNW) 3,331 7.4 -13.8°
